📊 Raw Sensor Data

Showing records 38901 to 38925 of 84,938 total

ID Distance (ft) Battery V Battery A Int Temp (°F) Int Humid (%) Ext Temp (°F) Solar V RSSI SNR Time Stamp
46050 15.2 3.93 -5 63 45 64 0.00 -71 7 07/12/2025 02:15 AM
46049 15.2 3.93 -5 64 44 65 0.00 -71 8 07/12/2025 02:00 AM
46048 15.2 3.93 -5 64 45 67 0.00 -70 8 07/12/2025 01:45 AM
46047 15.2 3.94 -5 65 45 66 0.00 -70 8 07/12/2025 01:30 AM
46046 15.2 3.99 -5 65 45 66 0.00 -72 8 07/12/2025 01:15 AM
46045 15.2 3.99 -5 65 45 67 0.00 -71 8 07/12/2025 01:00 AM
46044 15.2 4.00 -5 66 45 67 0.00 -71 8 07/12/2025 12:45 AM
46043 15.3 3.94 -5 66 45 67 0.00 -71 8 07/12/2025 12:30 AM
46042 15.2 3.94 -5 66 45 68 0.00 -71 8 07/12/2025 12:15 AM
46041 15.2 3.94 -5 67 46 67 0.00 -71 7 07/12/2025 12:00 AM
46040 15.2 3.94 -5 67 46 68 0.00 -71 7 07/11/2025 11:45 PM
46039 15.2 3.94 -5 67 47 68 0.00 -71 8 07/11/2025 11:30 PM
46038 15.2 4.00 -5 69 47 68 0.00 -71 8 07/11/2025 11:15 PM
46037 15.2 3.94 -5 70 47 70 0.00 -71 8 07/11/2025 11:00 PM
46036 15.2 3.94 -5 70 48 71 0.00 -71 8 07/11/2025 10:45 PM
46035 15.3 3.94 -5 72 48 72 0.00 -70 8 07/11/2025 10:30 PM
46034 15.3 4.00 -5 73 48 73 0.00 -71 8 07/11/2025 10:15 PM
46033 15.2 3.95 -5 74 49 74 0.10 -73 8 07/11/2025 10:00 PM
46032 15.2 3.95 -5 75 49 75 0.00 -72 8 07/11/2025 09:45 PM
46031 15.3 3.95 -5 76 50 76 0.00 -72 7 07/11/2025 09:30 PM
46030 15.2 3.95 -5 77 51 77 0.00 -73 8 07/11/2025 09:15 PM
46029 15.2 3.95 -5 78 52 78 0.00 -72 8 07/11/2025 09:00 PM
46028 15.3 4.01 -5 80 54 79 0.70 -73 7 07/11/2025 08:45 PM
46027 15.3 3.94 -10 82 56 80 3.30 -73 8 07/11/2025 08:30 PM
46026 15.3 3.96 0 86 56 82 4.50 -72 8 07/11/2025 08:15 PM